SL-12 DEB, 36882

Orbit data source: Space-Track

SL-12 DEB, 36882 is space debris in LEO originally from a launch on Tue, 10 Jan 1989 UTC launched from the Tyuratam Missile And Space Complex (TTMTR). Debris objects in space refer to the collection of defunct objects orbiting the Earth. Examples of debris include non-operational satellites, rocket bodies, and fragments generated from explosions, collisions, or faulty payload assembly.

Loading next visibility...
Identifier
36882, 1989-001V
Orbit
LEO
Country
Flag of CISCIS
Related business
Manufacturer
Unknown
Mission
Spacecraft
Bus & Motor
Unknown
Mass
Unknown
Launch date (UTC)
1989-01-10 (38 years ago)
Launch vehicle
Unknown
Launch site
Tyuratam Missile And Space Complex (TTMTR)
Object type
Payload
Rocket body
Debris
Shape & HBR
Unknown shape, 0.1 m
Radar Cross Section
Medium (>0.1 m² and <1 m²)

Expand to show TLE details & history
Last TLE update: 2 days ago

TLE from 2 days ago
0 SL-12 DEB
1 36882U 89001V   26252.35774348  .00005468  00000-0  31474-1 0  9996
2 36882  64.8753 247.2748 1832250  52.6578 322.7572 10.24750509564893
Epoch: 2026-09-09T08:35Z
TLE epoch observation values (Epoch: 2026-09-09T08:35:09.036Z)
Latitude
-0.0001°
Longitude
130.07615°
Altitude
1,408.958 km
Speed
7.608 km/s
True Right ascension
16h 29m 05s
True Declination
0° 00' 00"
Sunlit
Object was in daylight at epoch
Visualization orbit readout
Latitude
Unknown
Longitude
Unknown
Altitude
Unknown
Speed
Unknown
Apparent Right ascension
Unknown
Apparent Declination
Unknown
Sunlit
N/A
Visualization observer readout
Local Sidereal Time
03:50:55
Azimuth
Unknown
Elevation
Unknown
Doppler factor
Unknown
Orbital elements
Apogee altitude
4,214.393 km
Perigee altitude
933.84 km
Semi-major axis
8,952.253 km
Eccentricity
0.18323
Inclination
64.8753°
RAAN
247.2748°
Arg. of periapsis
52.6578°
True anomaly
307.43688°
Mean anomaly
322.7572°
Eccentric anomaly
315.38388°
Mean motion
2.56239 °/min
Orbital period
140.49 mins
BSTAR
0.031474
Loading maneuver chart data...
Computing Atmospheric mass density...
Loading historical data...
Loading historical data...
Loading historical data...
Loading historical data...
Loading historical data...
Loading historical data...
Loading historical data...

Documentation

Showing up to 5 results
|